Year,Month,Day,Hour,Minute,Value (Times are PST for temperature in C)
2021,07,02,00,00,15.10
2021,07,02,00,01,15.00
2021,07,02,00,02,15.00
2021,07,02,00,03,15.00
2021,07,02,00,04,15.00
2021,07,02,00,05,14.90
2021,07,02,00,06,14.90
2021,07,02,00,07,14.80
2021,07,02,00,08,14.80
2021,07,02,00,09,14.80
2021,07,02,00,10,14.70
2021,07,02,00,11,14.70
2021,07,02,00,12,14.70
2021,07,02,00,13,14.60
2021,07,02,00,14,14.60
2021,07,02,00,15,14.60
2021,07,02,00,16,14.60
2021,07,02,00,17,14.50
2021,07,02,00,18,14.50
2021,07,02,00,19,14.40
2021,07,02,00,20,14.40
2021,07,02,00,21,14.40
2021,07,02,00,22,14.40
2021,07,02,00,23,14.40
2021,07,02,00,24,14.30
2021,07,02,00,25,14.30
2021,07,02,00,26,14.30
2021,07,02,00,27,14.30
2021,07,02,00,28,14.30
2021,07,02,00,29,14.30
2021,07,02,00,30,14.20
2021,07,02,00,31,14.20
2021,07,02,00,32,14.20
2021,07,02,00,33,14.20
2021,07,02,00,34,14.20
2021,07,02,00,35,14.20
2021,07,02,00,36,14.10
2021,07,02,00,37,14.10
2021,07,02,00,38,14.10
2021,07,02,00,39,14.10
2021,07,02,00,40,14.10
2021,07,02,00,41,14.10
2021,07,02,00,42,14.10
2021,07,02,00,43,14.10
2021,07,02,00,44,14.00
2021,07,02,00,45,14.00
2021,07,02,00,46,14.00
2021,07,02,00,47,14.00
2021,07,02,00,48,14.00
2021,07,02,00,49,13.90
2021,07,02,00,50,14.00
2021,07,02,00,51,13.90
2021,07,02,00,52,13.90
2021,07,02,00,53,13.90
2021,07,02,00,54,13.90
2021,07,02,00,55,13.90
2021,07,02,00,56,13.90
2021,07,02,00,57,13.90
2021,07,02,00,58,13.90
2021,07,02,00,59,13.90
2021,07,02,01,00,13.90
2021,07,02,01,01,13.90
2021,07,02,01,02,13.90
2021,07,02,01,03,13.90
2021,07,02,01,04,13.80
2021,07,02,01,05,13.80
2021,07,02,01,06,13.80
2021,07,02,01,07,13.80
2021,07,02,01,08,13.80
2021,07,02,01,09,13.80
2021,07,02,01,10,13.80
2021,07,02,01,11,13.80
2021,07,02,01,12,13.80
2021,07,02,01,13,13.80
2021,07,02,01,14,13.80
2021,07,02,01,15,13.80
2021,07,02,01,16,13.80
2021,07,02,01,17,13.80
2021,07,02,01,18,13.80
2021,07,02,01,19,13.80
2021,07,02,01,20,13.90
2021,07,02,01,21,13.90
2021,07,02,01,22,13.90
2021,07,02,01,23,13.90
2021,07,02,01,24,13.90
2021,07,02,01,25,13.90
2021,07,02,01,26,13.90
2021,07,02,01,27,13.90
2021,07,02,01,28,14.00
2021,07,02,01,29,13.90
2021,07,02,01,30,14.00
2021,07,02,01,31,13.90
2021,07,02,01,32,13.90
2021,07,02,01,33,13.90
2021,07,02,01,34,13.90
2021,07,02,01,35,13.90
2021,07,02,01,36,13.90
2021,07,02,01,37,13.90
2021,07,02,01,38,13.90
2021,07,02,01,39,13.90
2021,07,02,01,40,13.90
2021,07,02,01,41,13.90
2021,07,02,01,42,13.90
2021,07,02,01,43,13.90
2021,07,02,01,44,13.90
2021,07,02,01,45,13.80
2021,07,02,01,46,13.90
2021,07,02,01,47,13.80
2021,07,02,01,48,13.80
2021,07,02,01,49,13.80
2021,07,02,01,50,13.80
2021,07,02,01,51,13.80
2021,07,02,01,52,13.80
2021,07,02,01,53,13.80
2021,07,02,01,54,13.80
2021,07,02,01,55,13.80
2021,07,02,01,56,13.80
2021,07,02,01,57,13.80
2021,07,02,01,58,13.80
2021,07,02,01,59,13.80
2021,07,02,02,00,13.80
2021,07,02,02,01,13.80
2021,07,02,02,02,13.80
2021,07,02,02,03,13.80
2021,07,02,02,04,13.80
2021,07,02,02,05,13.80
2021,07,02,02,06,13.80
2021,07,02,02,07,13.80
2021,07,02,02,08,13.80
2021,07,02,02,09,13.80
2021,07,02,02,10,13.80
2021,07,02,02,11,13.80
2021,07,02,02,12,13.80
2021,07,02,02,13,13.80
2021,07,02,02,14,13.80
2021,07,02,02,15,13.80
2021,07,02,02,16,13.70
2021,07,02,02,17,13.70
2021,07,02,02,18,13.70
2021,07,02,02,19,13.70
2021,07,02,02,20,13.70
2021,07,02,02,21,13.70
2021,07,02,02,22,13.70
2021,07,02,02,23,13.70
2021,07,02,02,24,13.60
2021,07,02,02,25,13.60
2021,07,02,02,26,13.60
2021,07,02,02,27,13.60
2021,07,02,02,28,13.60
2021,07,02,02,29,13.60
2021,07,02,02,30,13.60
2021,07,02,02,31,13.60
2021,07,02,02,32,13.50
2021,07,02,02,33,13.50
2021,07,02,02,34,13.50
2021,07,02,02,35,13.50
2021,07,02,02,36,13.50
2021,07,02,02,37,13.40
2021,07,02,02,38,13.40
2021,07,02,02,39,13.40
2021,07,02,02,40,13.40
2021,07,02,02,41,13.40
2021,07,02,02,42,13.40
2021,07,02,02,43,13.40
2021,07,02,02,44,13.40
2021,07,02,02,45,13.40
2021,07,02,02,46,13.40
2021,07,02,02,47,13.40
2021,07,02,02,48,13.30
2021,07,02,02,49,13.30
2021,07,02,02,50,13.30
2021,07,02,02,51,13.30
2021,07,02,02,52,13.30
2021,07,02,02,53,13.30
2021,07,02,02,54,13.30
2021,07,02,02,55,13.30
2021,07,02,02,56,13.30
2021,07,02,02,57,13.30
2021,07,02,02,58,13.30
2021,07,02,02,59,13.30
2021,07,02,03,00,13.30
2021,07,02,03,01,13.30
2021,07,02,03,02,13.20
2021,07,02,03,03,13.20
2021,07,02,03,04,13.20
2021,07,02,03,05,13.20
2021,07,02,03,06,13.20
2021,07,02,03,07,13.20
2021,07,02,03,08,13.20
2021,07,02,03,09,13.20
2021,07,02,03,10,13.20
2021,07,02,03,11,13.20
2021,07,02,03,12,13.20
2021,07,02,03,13,13.20
2021,07,02,03,14,13.10
2021,07,02,03,15,13.10
2021,07,02,03,16,13.10
2021,07,02,03,17,13.10
2021,07,02,03,18,13.10
2021,07,02,03,19,13.10
2021,07,02,03,20,13.10
2021,07,02,03,21,13.10
2021,07,02,03,22,13.10
2021,07,02,03,23,13.10
2021,07,02,03,24,13.10
2021,07,02,03,25,13.10
2021,07,02,03,26,13.10
2021,07,02,03,27,13.00
2021,07,02,03,28,13.00
2021,07,02,03,29,13.10
2021,07,02,03,30,13.00
2021,07,02,03,31,13.00
2021,07,02,03,32,13.00
2021,07,02,03,33,13.00
2021,07,02,03,34,13.00
2021,07,02,03,35,13.00
2021,07,02,03,36,13.00
2021,07,02,03,37,12.90
2021,07,02,03,38,12.90
2021,07,02,03,39,12.90
2021,07,02,03,40,13.00
2021,07,02,03,41,13.00
2021,07,02,03,42,12.90
2021,07,02,03,43,13.00
2021,07,02,03,44,13.00
2021,07,02,03,45,13.00
2021,07,02,03,46,13.00
2021,07,02,03,47,13.00
2021,07,02,03,48,13.00
2021,07,02,03,49,13.00
2021,07,02,03,50,13.00
2021,07,02,03,51,13.00
2021,07,02,03,52,13.00
2021,07,02,03,53,13.10
2021,07,02,03,54,13.00
2021,07,02,03,55,13.00
2021,07,02,03,56,13.00
2021,07,02,03,57,13.00
2021,07,02,03,58,13.00
2021,07,02,03,59,13.00
2021,07,02,04,00,13.00
2021,07,02,04,01,13.00
2021,07,02,04,02,13.00
2021,07,02,04,03,13.00
2021,07,02,04,04,13.00
2021,07,02,04,05,13.00
2021,07,02,04,06,13.00
2021,07,02,04,07,13.00
2021,07,02,04,08,13.00
2021,07,02,04,09,13.00
2021,07,02,04,10,12.90
2021,07,02,04,11,12.90
2021,07,02,04,12,12.90
2021,07,02,04,13,12.90
2021,07,02,04,14,12.90
2021,07,02,04,15,12.90
2021,07,02,04,16,12.90
2021,07,02,04,17,12.90
2021,07,02,04,18,12.90
2021,07,02,04,19,12.80
2021,07,02,04,20,12.80
2021,07,02,04,21,12.80
2021,07,02,04,22,12.80
2021,07,02,04,23,12.80
2021,07,02,04,24,12.80
2021,07,02,04,25,12.80
2021,07,02,04,26,12.80
2021,07,02,04,27,12.70
2021,07,02,04,28,12.70
2021,07,02,04,29,12.70
2021,07,02,04,30,12.70
2021,07,02,04,31,12.70
2021,07,02,04,32,12.70
2021,07,02,04,33,12.70
2021,07,02,04,34,12.70
2021,07,02,04,35,12.70
2021,07,02,04,36,12.70
2021,07,02,04,37,12.70
2021,07,02,04,38,12.80
2021,07,02,04,39,12.80
2021,07,02,04,40,12.80
2021,07,02,04,41,12.80
2021,07,02,04,42,12.80
2021,07,02,04,43,12.80
2021,07,02,04,44,12.80
2021,07,02,04,45,12.80
2021,07,02,04,46,12.80
2021,07,02,04,47,12.80
2021,07,02,04,48,12.80
2021,07,02,04,49,12.80
2021,07,02,04,50,12.80
2021,07,02,04,51,12.80
2021,07,02,04,52,12.80
2021,07,02,04,53,12.80
2021,07,02,04,54,12.80
2021,07,02,04,55,12.80
2021,07,02,04,56,12.80
2021,07,02,04,57,12.90
2021,07,02,04,58,12.80
2021,07,02,04,59,12.90
2021,07,02,05,00,12.90
2021,07,02,05,01,12.80
2021,07,02,05,02,12.80
2021,07,02,05,03,12.80
2021,07,02,05,04,12.80
2021,07,02,05,05,12.80
2021,07,02,05,06,12.80
2021,07,02,05,07,12.80
2021,07,02,05,08,12.80
2021,07,02,05,09,12.90
2021,07,02,05,10,12.90
2021,07,02,05,11,12.90
2021,07,02,05,12,12.90
2021,07,02,05,13,12.90
2021,07,02,05,14,12.90
2021,07,02,05,15,12.90
2021,07,02,05,16,12.90
2021,07,02,05,17,12.90
2021,07,02,05,18,12.90
2021,07,02,05,19,12.90
2021,07,02,05,20,12.90
2021,07,02,05,21,12.90
2021,07,02,05,22,12.90
2021,07,02,05,23,12.90
2021,07,02,05,24,12.90
2021,07,02,05,25,12.90
2021,07,02,05,26,12.90
2021,07,02,05,27,12.90
2021,07,02,05,28,12.90
2021,07,02,05,29,13.00
2021,07,02,05,30,13.00
2021,07,02,05,31,13.00
2021,07,02,05,32,13.00
2021,07,02,05,33,13.00
2021,07,02,05,34,13.00
2021,07,02,05,35,13.00
2021,07,02,05,36,13.00
2021,07,02,05,37,13.10
2021,07,02,05,38,13.10
2021,07,02,05,39,13.10
2021,07,02,05,40,13.10
2021,07,02,05,41,13.10
2021,07,02,05,42,13.10
2021,07,02,05,43,13.10
2021,07,02,05,44,13.10
2021,07,02,05,45,13.10
2021,07,02,05,46,13.10
2021,07,02,05,47,13.10
2021,07,02,05,48,13.20
2021,07,02,05,49,13.20
2021,07,02,05,50,13.20
2021,07,02,05,51,13.20
2021,07,02,05,52,13.20
2021,07,02,05,53,13.30
2021,07,02,05,54,13.30
2021,07,02,05,55,13.30
2021,07,02,05,56,13.30
2021,07,02,05,57,13.30
2021,07,02,05,58,13.30
2021,07,02,05,59,13.40
2021,07,02,06,00,13.40
2021,07,02,06,01,13.40
2021,07,02,06,02,13.40
2021,07,02,06,03,13.50
2021,07,02,06,04,13.50
2021,07,02,06,05,13.60
2021,07,02,06,06,13.60
2021,07,02,06,07,13.60
2021,07,02,06,08,13.60
2021,07,02,06,09,13.70
2021,07,02,06,10,13.70
2021,07,02,06,11,13.70
2021,07,02,06,12,13.70
2021,07,02,06,13,13.80
2021,07,02,06,14,13.80
2021,07,02,06,15,13.80
2021,07,02,06,16,13.80
2021,07,02,06,17,13.90
2021,07,02,06,18,13.90
2021,07,02,06,19,14.00
2021,07,02,06,20,14.00
2021,07,02,06,21,14.00
2021,07,02,06,22,14.10
2021,07,02,06,23,14.10
2021,07,02,06,24,14.10
2021,07,02,06,25,14.20
2021,07,02,06,26,14.20
2021,07,02,06,27,14.20
2021,07,02,06,28,14.30
2021,07,02,06,29,14.30
2021,07,02,06,30,14.30
2021,07,02,06,31,14.30
2021,07,02,06,32,14.40
2021,07,02,06,33,14.40
2021,07,02,06,34,14.40
2021,07,02,06,35,14.40
2021,07,02,06,36,14.50
2021,07,02,06,37,14.50
2021,07,02,06,38,14.60
2021,07,02,06,39,14.60
2021,07,02,06,40,14.60
2021,07,02,06,41,14.60
2021,07,02,06,42,14.70
2021,07,02,06,43,14.70
2021,07,02,06,44,14.70
2021,07,02,06,45,14.70
2021,07,02,06,46,14.80
2021,07,02,06,47,14.80
2021,07,02,06,48,14.80
2021,07,02,06,49,14.80
2021,07,02,06,50,14.80
2021,07,02,06,51,14.80
2021,07,02,06,52,14.80
2021,07,02,06,53,14.90
2021,07,02,06,54,14.90
2021,07,02,06,55,14.90
2021,07,02,06,56,14.90
2021,07,02,06,57,14.90
2021,07,02,06,58,14.90
2021,07,02,06,59,14.90
2021,07,02,07,00,15.00
2021,07,02,07,01,15.00
2021,07,02,07,02,15.00
2021,07,02,07,03,15.10
2021,07,02,07,04,15.10
2021,07,02,07,05,15.10
2021,07,02,07,06,15.10
2021,07,02,07,07,15.10
2021,07,02,07,08,15.10
2021,07,02,07,09,15.20
2021,07,02,07,10,15.20
2021,07,02,07,11,15.20
2021,07,02,07,12,15.20
2021,07,02,07,13,15.30
2021,07,02,07,14,15.30
2021,07,02,07,15,15.30
2021,07,02,07,16,15.30
2021,07,02,07,17,15.30
2021,07,02,07,18,15.30
2021,07,02,07,19,15.30
2021,07,02,07,20,15.40
2021,07,02,07,21,15.30
2021,07,02,07,22,15.40
2021,07,02,07,23,15.40
2021,07,02,07,24,15.40
2021,07,02,07,25,15.40
2021,07,02,07,26,15.40
2021,07,02,07,27,15.40
2021,07,02,07,28,15.50
2021,07,02,07,29,15.50
2021,07,02,07,30,15.50
2021,07,02,07,31,15.50
2021,07,02,07,32,15.60
2021,07,02,07,33,15.60
2021,07,02,07,34,15.60
2021,07,02,07,35,15.60
2021,07,02,07,36,15.60
2021,07,02,07,37,15.60
2021,07,02,07,38,15.70
2021,07,02,07,39,15.70
2021,07,02,07,40,15.70
2021,07,02,07,41,15.70
2021,07,02,07,42,15.80
2021,07,02,07,43,15.80
2021,07,02,07,44,15.80
2021,07,02,07,45,15.80
2021,07,02,07,46,15.80
2021,07,02,07,47,15.80
2021,07,02,07,48,15.80
2021,07,02,07,49,15.90
2021,07,02,07,50,15.90
2021,07,02,07,51,15.90
2021,07,02,07,52,15.90
2021,07,02,07,53,15.90
2021,07,02,07,54,16.00
2021,07,02,07,55,16.00
2021,07,02,07,56,16.10
2021,07,02,07,57,16.10
2021,07,02,07,58,16.10
2021,07,02,07,59,16.10
2021,07,02,08,00,16.20
2021,07,02,08,01,16.20
2021,07,02,08,02,16.20
2021,07,02,08,03,16.30
2021,07,02,08,04,16.30
2021,07,02,08,05,16.30
2021,07,02,08,06,16.40
2021,07,02,08,07,16.40
2021,07,02,08,08,16.40
2021,07,02,08,09,16.50
2021,07,02,08,10,16.50
2021,07,02,08,11,16.60
2021,07,02,08,12,16.70
2021,07,02,08,13,16.70
2021,07,02,08,14,16.70
2021,07,02,08,15,16.80
2021,07,02,08,16,16.80
2021,07,02,08,17,16.90
2021,07,02,08,18,16.90
2021,07,02,08,19,17.00
2021,07,02,08,20,17.00
2021,07,02,08,21,17.10
2021,07,02,08,22,17.10
2021,07,02,08,23,17.20
2021,07,02,08,24,17.20
2021,07,02,08,25,17.30
2021,07,02,08,26,17.30
2021,07,02,08,27,17.30
2021,07,02,08,28,17.30
2021,07,02,08,29,17.40
2021,07,02,08,30,17.40
2021,07,02,08,31,17.40
2021,07,02,08,32,17.40
2021,07,02,08,33,17.50
2021,07,02,08,34,17.50
2021,07,02,08,35,17.50
2021,07,02,08,36,17.60
2021,07,02,08,37,17.60
2021,07,02,08,38,17.60
2021,07,02,08,39,17.60
2021,07,02,08,40,17.60
2021,07,02,08,41,17.70
2021,07,02,08,42,17.70
2021,07,02,08,43,17.70
2021,07,02,08,44,17.70
2021,07,02,08,45,17.70
2021,07,02,08,46,17.70
2021,07,02,08,47,17.70
2021,07,02,08,48,17.70
2021,07,02,08,49,17.70
2021,07,02,08,50,17.80
2021,07,02,08,51,17.80
2021,07,02,08,52,17.80
2021,07,02,08,53,17.80
2021,07,02,08,54,17.80
2021,07,02,08,55,17.90
2021,07,02,08,56,17.90
2021,07,02,08,57,17.90
2021,07,02,08,58,17.90
2021,07,02,08,59,18.00
2021,07,02,09,00,18.00
2021,07,02,09,01,18.10
2021,07,02,09,02,18.20
2021,07,02,09,03,18.20
2021,07,02,09,04,18.30
2021,07,02,09,05,18.30
2021,07,02,09,06,18.40
2021,07,02,09,07,18.40
2021,07,02,09,08,18.50
2021,07,02,09,09,18.60
2021,07,02,09,10,18.60
2021,07,02,09,11,18.70
2021,07,02,09,12,18.80
2021,07,02,09,13,18.90
2021,07,02,09,14,18.90
2021,07,02,09,15,19.00
2021,07,02,09,16,19.10
2021,07,02,09,17,19.10
2021,07,02,09,18,19.20
2021,07,02,09,19,19.20
2021,07,02,09,20,19.30
2021,07,02,09,21,19.30
2021,07,02,09,22,19.30
2021,07,02,09,23,19.30
2021,07,02,09,24,19.40
2021,07,02,09,25,19.40
2021,07,02,09,26,19.40
2021,07,02,09,27,19.40
2021,07,02,09,28,19.50
2021,07,02,09,29,19.60
2021,07,02,09,30,19.60
2021,07,02,09,31,19.70
2021,07,02,09,32,19.70
2021,07,02,09,33,19.80
2021,07,02,09,34,19.80
2021,07,02,09,35,19.80
2021,07,02,09,36,19.90
2021,07,02,09,37,19.90
2021,07,02,09,38,19.90
2021,07,02,09,39,20.00
2021,07,02,09,40,20.00
2021,07,02,09,41,20.00
2021,07,02,09,42,20.10
2021,07,02,09,43,20.10
2021,07,02,09,44,20.10
2021,07,02,09,45,20.20
2021,07,02,09,46,20.20
2021,07,02,09,47,20.20
2021,07,02,09,48,20.30
2021,07,02,09,49,20.30
2021,07,02,09,50,20.30
2021,07,02,09,51,20.40
2021,07,02,09,52,20.30
2021,07,02,09,53,20.30
2021,07,02,09,54,20.40
2021,07,02,09,55,20.40
2021,07,02,09,56,20.40
2021,07,02,09,57,20.40
2021,07,02,09,58,20.50
2021,07,02,09,59,20.50
2021,07,02,10,00,20.60
2021,07,02,10,01,20.60
2021,07,02,10,02,20.70
2021,07,02,10,03,20.70
2021,07,02,10,04,20.70
2021,07,02,10,05,20.80
2021,07,02,10,06,20.80
2021,07,02,10,07,20.90
2021,07,02,10,08,20.90
2021,07,02,10,09,20.90
2021,07,02,10,10,21.00
2021,07,02,10,11,21.00
2021,07,02,10,12,21.10
2021,07,02,10,13,21.10
2021,07,02,10,14,21.10
2021,07,02,10,15,21.10
2021,07,02,10,16,21.20
2021,07,02,10,17,21.20
2021,07,02,10,18,21.20
2021,07,02,10,19,21.30
2021,07,02,10,20,21.30
2021,07,02,10,21,21.40
2021,07,02,10,22,21.40
2021,07,02,10,23,21.50
2021,07,02,10,24,21.50
2021,07,02,10,25,21.60
2021,07,02,10,26,21.60
2021,07,02,10,27,21.60
2021,07,02,10,28,21.70
2021,07,02,10,29,21.70
2021,07,02,10,30,21.80
2021,07,02,10,31,21.80
2021,07,02,10,32,21.90
2021,07,02,10,33,21.90
2021,07,02,10,34,22.00
2021,07,02,10,35,22.00
2021,07,02,10,36,22.10
2021,07,02,10,37,22.10
2021,07,02,10,38,22.20
2021,07,02,10,39,22.20
2021,07,02,10,40,22.20
2021,07,02,10,41,22.30
2021,07,02,10,42,22.30
2021,07,02,10,43,22.40
2021,07,02,10,44,22.40
2021,07,02,10,45,22.50
2021,07,02,10,46,22.50
2021,07,02,10,47,22.60
2021,07,02,10,48,22.60
2021,07,02,10,49,22.70
2021,07,02,10,50,22.70
2021,07,02,10,51,22.70
2021,07,02,10,52,22.70
2021,07,02,10,53,22.80
2021,07,02,10,54,22.80
2021,07,02,10,55,22.90
2021,07,02,10,56,22.90
2021,07,02,10,57,22.90
2021,07,02,10,58,22.90
2021,07,02,10,59,22.90
2021,07,02,11,00,22.90
2021,07,02,11,01,22.80
2021,07,02,11,02,22.80
2021,07,02,11,03,22.90
2021,07,02,11,04,22.90
2021,07,02,11,05,22.90
2021,07,02,11,06,22.90
2021,07,02,11,07,23.00
2021,07,02,11,08,23.00
2021,07,02,11,09,23.00
2021,07,02,11,10,23.00
2021,07,02,11,11,23.10
2021,07,02,11,12,23.10
2021,07,02,11,13,23.10
2021,07,02,11,14,23.10
2021,07,02,11,15,23.10
2021,07,02,11,16,23.10
2021,07,02,11,17,23.10
2021,07,02,11,18,23.10
2021,07,02,11,19,23.20
2021,07,02,11,20,23.20
2021,07,02,11,21,23.20
2021,07,02,11,22,23.20
2021,07,02,11,23,23.10
2021,07,02,11,24,23.10
2021,07,02,11,25,23.10
2021,07,02,11,26,23.10
2021,07,02,11,27,23.10
2021,07,02,11,28,23.10
2021,07,02,11,29,23.10
2021,07,02,11,30,23.10
2021,07,02,11,31,23.10
2021,07,02,11,32,23.10
2021,07,02,11,33,23.10
2021,07,02,11,34,23.00
2021,07,02,11,35,23.00
2021,07,02,11,36,23.00
2021,07,02,11,37,23.10
2021,07,02,11,38,23.10
2021,07,02,11,39,23.10
2021,07,02,11,40,23.10
2021,07,02,11,41,23.10
2021,07,02,11,42,23.10
2021,07,02,11,43,23.10
2021,07,02,11,44,23.10
2021,07,02,11,45,23.10
2021,07,02,11,46,23.20
2021,07,02,11,47,23.30
2021,07,02,11,48,23.30
2021,07,02,11,49,23.40
2021,07,02,11,50,23.50
2021,07,02,11,51,23.60
2021,07,02,11,52,23.60
2021,07,02,11,53,23.60
2021,07,02,11,54,23.70
2021,07,02,11,55,23.70
2021,07,02,11,56,23.70
2021,07,02,11,57,23.70
2021,07,02,11,58,23.80
2021,07,02,11,59,23.80
2021,07,02,12,00,23.80
2021,07,02,12,01,23.80
2021,07,02,12,02,23.80
2021,07,02,12,03,23.80
2021,07,02,12,04,23.80
2021,07,02,12,05,23.80
2021,07,02,12,06,23.80
2021,07,02,12,07,23.80
2021,07,02,12,08,23.80
2021,07,02,12,09,23.80
2021,07,02,12,10,23.80
2021,07,02,12,11,23.80
2021,07,02,12,12,23.80
2021,07,02,12,13,23.80
2021,07,02,12,14,23.80
2021,07,02,12,15,23.80
2021,07,02,12,16,23.80
2021,07,02,12,17,23.90
2021,07,02,12,18,23.90
2021,07,02,12,19,23.90
2021,07,02,12,20,23.90
2021,07,02,12,21,24.00
2021,07,02,12,22,24.00
2021,07,02,12,23,24.00
2021,07,02,12,24,24.00
2021,07,02,12,25,24.00
2021,07,02,12,26,24.00
2021,07,02,12,27,23.90
2021,07,02,12,28,23.90
2021,07,02,12,29,23.80
2021,07,02,12,30,23.70
2021,07,02,12,31,23.70
2021,07,02,12,32,23.70
2021,07,02,12,33,23.60
2021,07,02,12,34,23.60
2021,07,02,12,35,23.60
2021,07,02,12,36,23.70
2021,07,02,12,37,23.70
2021,07,02,12,38,23.70
2021,07,02,12,39,23.70
2021,07,02,12,40,23.70
2021,07,02,12,41,23.70
2021,07,02,12,42,23.70
2021,07,02,12,43,23.80
2021,07,02,12,44,23.80
2021,07,02,12,45,23.80
2021,07,02,12,46,23.80
2021,07,02,12,47,23.80
2021,07,02,12,48,23.80
2021,07,02,12,49,23.80
2021,07,02,12,50,23.80
2021,07,02,12,51,23.80
2021,07,02,12,52,23.80
2021,07,02,12,53,23.80
2021,07,02,12,54,23.80
2021,07,02,12,55,23.80
2021,07,02,12,56,23.70
2021,07,02,12,57,23.60
2021,07,02,12,58,23.60
2021,07,02,12,59,23.60
2021,07,02,13,00,23.60
2021,07,02,13,01,23.60
2021,07,02,13,02,23.60
2021,07,02,13,03,23.60
2021,07,02,13,04,23.60
2021,07,02,13,05,23.60
2021,07,02,13,06,23.60
2021,07,02,13,07,23.60
2021,07,02,13,08,23.60
2021,07,02,13,09,23.60
2021,07,02,13,10,23.60
2021,07,02,13,11,23.60
2021,07,02,13,12,23.60
2021,07,02,13,13,23.60
2021,07,02,13,14,23.60
2021,07,02,13,15,23.60
2021,07,02,13,16,23.70
2021,07,02,13,17,23.80
2021,07,02,13,18,23.80
2021,07,02,13,19,23.90
2021,07,02,13,20,23.90
2021,07,02,13,21,23.90
2021,07,02,13,22,23.90
2021,07,02,13,23,23.90
2021,07,02,13,24,23.90
2021,07,02,13,25,24.00
2021,07,02,13,26,24.00
2021,07,02,13,27,24.10
2021,07,02,13,28,24.10
2021,07,02,13,29,24.20
2021,07,02,13,30,24.20
2021,07,02,13,31,24.20
2021,07,02,13,32,24.20
2021,07,02,13,33,24.20
2021,07,02,13,34,24.20
2021,07,02,13,35,24.20
2021,07,02,13,36,24.20
2021,07,02,13,37,24.20
2021,07,02,13,38,24.30
2021,07,02,13,39,24.30
2021,07,02,13,40,24.30
2021,07,02,13,41,24.30
2021,07,02,13,42,24.20
2021,07,02,13,43,24.20
2021,07,02,13,44,24.30
2021,07,02,13,45,24.30
2021,07,02,13,46,24.30
2021,07,02,13,47,24.30
2021,07,02,13,48,24.30
2021,07,02,13,49,24.30
2021,07,02,13,50,24.30
2021,07,02,13,51,24.40
2021,07,02,13,52,24.40
2021,07,02,13,53,24.40
2021,07,02,13,54,24.50
2021,07,02,13,55,24.40
2021,07,02,13,56,24.40
2021,07,02,13,57,24.50
2021,07,02,13,58,24.50
2021,07,02,13,59,24.60
2021,07,02,14,00,24.60
2021,07,02,14,01,24.70
2021,07,02,14,02,24.70
2021,07,02,14,03,24.70
2021,07,02,14,04,24.80
2021,07,02,14,05,24.80
2021,07,02,14,06,24.80
2021,07,02,14,07,24.80
2021,07,02,14,08,24.80
2021,07,02,14,09,24.90
2021,07,02,14,10,25.00
2021,07,02,14,11,25.00
2021,07,02,14,12,25.00
2021,07,02,14,13,25.00
2021,07,02,14,14,25.10
2021,07,02,14,15,25.20
2021,07,02,14,16,25.20
2021,07,02,14,17,25.20
2021,07,02,14,18,25.10
2021,07,02,14,19,25.10
2021,07,02,14,20,25.10
2021,07,02,14,21,25.10
2021,07,02,14,22,25.00
2021,07,02,14,23,25.00
2021,07,02,14,24,25.00
2021,07,02,14,25,25.00
2021,07,02,14,26,25.00
2021,07,02,14,27,25.00
2021,07,02,14,28,24.90
2021,07,02,14,29,24.90
2021,07,02,14,30,24.80
2021,07,02,14,31,24.80
2021,07,02,14,32,24.80
2021,07,02,14,33,24.80
2021,07,02,14,34,24.80
2021,07,02,14,35,24.90
2021,07,02,14,36,24.90
2021,07,02,14,37,25.00
2021,07,02,14,38,25.10
2021,07,02,14,39,25.10
2021,07,02,14,40,25.20
2021,07,02,14,41,25.30
2021,07,02,14,42,25.30
2021,07,02,14,43,25.30
2021,07,02,14,44,25.30
2021,07,02,14,45,25.30
2021,07,02,14,46,25.30
2021,07,02,14,47,25.30
2021,07,02,14,48,25.30
2021,07,02,14,49,25.30
2021,07,02,14,50,25.30
2021,07,02,14,51,25.30
2021,07,02,14,52,25.30
2021,07,02,14,53,25.30
2021,07,02,14,54,25.40
2021,07,02,14,55,25.40
2021,07,02,14,56,25.40
2021,07,02,14,57,25.30
2021,07,02,14,58,25.30
2021,07,02,14,59,25.30
2021,07,02,15,00,25.30
2021,07,02,15,01,25.40
2021,07,02,15,02,25.40
2021,07,02,15,03,25.40
2021,07,02,15,04,25.40
2021,07,02,15,05,25.40
2021,07,02,15,06,25.40
2021,07,02,15,07,25.40
2021,07,02,15,08,25.30
2021,07,02,15,09,25.20
2021,07,02,15,10,25.10
2021,07,02,15,11,25.10
2021,07,02,15,12,25.10
2021,07,02,15,13,25.10
2021,07,02,15,14,25.10
2021,07,02,15,15,25.10
2021,07,02,15,16,25.00
2021,07,02,15,17,25.10
2021,07,02,15,18,25.10
2021,07,02,15,19,25.10
2021,07,02,15,20,25.00
2021,07,02,15,21,25.00
2021,07,02,15,22,25.00
2021,07,02,15,23,24.90
2021,07,02,15,24,24.90
2021,07,02,15,25,24.80
2021,07,02,15,26,24.80
2021,07,02,15,27,24.80
2021,07,02,15,28,24.80
2021,07,02,15,29,24.80
2021,07,02,15,30,24.90
2021,07,02,15,31,24.90
2021,07,02,15,32,24.90
2021,07,02,15,33,24.90
2021,07,02,15,34,24.90
2021,07,02,15,35,24.90
2021,07,02,15,36,24.90
2021,07,02,15,37,25.00
2021,07,02,15,38,24.90
2021,07,02,15,39,24.90
2021,07,02,15,40,25.00
2021,07,02,15,41,25.00
2021,07,02,15,42,25.00
2021,07,02,15,43,25.10
2021,07,02,15,44,25.10
2021,07,02,15,45,25.20
2021,07,02,15,46,25.20
2021,07,02,15,47,25.20
2021,07,02,15,48,25.20
2021,07,02,15,49,25.20
2021,07,02,15,50,25.20
2021,07,02,15,51,25.20
2021,07,02,15,52,25.20
2021,07,02,15,53,25.30
2021,07,02,15,54,25.30
2021,07,02,15,55,25.30
2021,07,02,15,56,25.30
2021,07,02,15,57,25.30
2021,07,02,15,58,25.30
2021,07,02,15,59,25.40
2021,07,02,16,00,25.40
2021,07,02,16,01,25.30
2021,07,02,16,02,25.30
2021,07,02,16,03,25.30
2021,07,02,16,04,25.30
2021,07,02,16,05,25.30
2021,07,02,16,06,25.30
2021,07,02,16,07,25.30
2021,07,02,16,08,25.30
2021,07,02,16,09,25.30
2021,07,02,16,10,25.30
2021,07,02,16,11,25.30
2021,07,02,16,12,25.40
2021,07,02,16,13,25.40
2021,07,02,16,14,25.40
2021,07,02,16,15,25.40
2021,07,02,16,16,25.40
2021,07,02,16,17,25.40
2021,07,02,16,18,25.40
2021,07,02,16,19,25.40
2021,07,02,16,20,25.50
2021,07,02,16,21,25.50
2021,07,02,16,22,25.50
2021,07,02,16,23,25.50
2021,07,02,16,24,25.60
2021,07,02,16,25,25.60
2021,07,02,16,26,25.60
2021,07,02,16,27,25.60
2021,07,02,16,28,25.50
2021,07,02,16,29,25.50
2021,07,02,16,30,25.50
2021,07,02,16,31,25.50
2021,07,02,16,32,25.50
2021,07,02,16,33,25.50
2021,07,02,16,34,25.60
2021,07,02,16,35,25.60
2021,07,02,16,36,25.60
2021,07,02,16,37,25.60
2021,07,02,16,38,25.50
2021,07,02,16,39,25.50
2021,07,02,16,40,25.50
2021,07,02,16,41,25.40
2021,07,02,16,42,25.50
2021,07,02,16,43,25.40
2021,07,02,16,44,25.40
2021,07,02,16,45,25.40
2021,07,02,16,46,25.40
2021,07,02,16,47,25.40
2021,07,02,16,48,25.40
2021,07,02,16,49,25.40
2021,07,02,16,50,25.40
2021,07,02,16,51,25.40
2021,07,02,16,52,25.40
2021,07,02,16,53,25.30
2021,07,02,16,54,25.30
2021,07,02,16,55,25.30
2021,07,02,16,56,25.30
2021,07,02,16,57,25.20
2021,07,02,16,58,25.20
2021,07,02,16,59,25.20
2021,07,02,17,00,25.20
2021,07,02,17,01,25.20
2021,07,02,17,02,25.20
2021,07,02,17,03,25.20
2021,07,02,17,04,25.30
2021,07,02,17,05,25.30
2021,07,02,17,06,25.30
2021,07,02,17,07,25.30
2021,07,02,17,08,25.30
2021,07,02,17,09,25.30
2021,07,02,17,10,25.20
2021,07,02,17,11,25.20
2021,07,02,17,12,25.20
2021,07,02,17,13,25.20
2021,07,02,17,14,25.20
2021,07,02,17,15,25.20
2021,07,02,17,16,25.10
2021,07,02,17,17,25.10
2021,07,02,17,18,25.10
2021,07,02,17,19,25.10